Regional Weather Roundup
Issued by NWS

Home | Current Version | Previous Version | Graphics & Text | Print | Product List | Glossary On
Versions: 1 2 3 4 5 6 7 8 9 10 11 12 13 14 15 16 17 18 19 20 21 22 23 24 25 26 27 28 29 30 31 32 33 34 35 36 37 38 39 40 41 42 43 44 45 46 47 48 49 50
000
ASUS43 KDTX 241210
RWRMI
MICHIGAN HOURLY REGIONAL WEATHER ROUNDUP
NATIONAL WEATHER SERVICE DETROIT/PONTIAC MI
800 AM EDT THU APR 24 2014

NOTE: "FAIR" INDICATES FEW OR NO CLOUDS BELOW 12,000 FEET WITH NO
SIGNIFICANT WEATHER AND/OR OBSTRUCTION TO VISIBILITY.

MIZ047>049-052>055-059>063-066>070-074>076-081>083-241300-
SOUTHEAST LOWER MICHIGAN

CITY           SKY/WX    TMP DP  RH WIND       PRES   REMARKS
ADRIAN         CLOUDY    44  31  60 SE6       30.16S
6HR MIN TEMP:  42; 6HR MAX TEMP:  46;

ALMA           CLOUDY    39  26  59 E6        30.15S
ANN ARBOR      CLOUDY    42  20  41 E7        30.16S
BAD AXE        MOSUNNY   32  28  83 CALM      30.18S
6HR MIN TEMP:  26; 6HR MAX TEMP:  32;

DETROIT CITY   MOSUNNY   41  23  48 CALM      30.19R
6HR MIN TEMP:  38; 6HR MAX TEMP:  41;

DETROIT        CLOUDY    41  16  36 E3        30.19R
6HR MIN TEMP:  40; 6HR MAX TEMP:  43;

FLINT          CLOUDY    40  22  48 E6        30.18R
6HR MIN TEMP:  34; 6HR MAX TEMP:  40;

GROSSE ILE     CLOUDY    41   1  19 E6        30.18R
HILLSDALE      CLOUDY    44  31  61 SE12      30.12S
HOWELL         CLOUDY    41  20  43 E3        30.15S
6HR MIN TEMP:  37; 6HR MAX TEMP:  42;


CITY           SKY/WX    TMP DP  RH WIND       PRES   REMARKS
JACKSON        CLOUDY    42  28  57 SE10      30.13S
6HR MIN TEMP:  42; 6HR MAX TEMP:  45;

LAMBERTVILLE   CLOUDY    45  27  49 E5        30.17R
LANSING        CLOUDY    43  23  45 SE12      30.15R
6HR MIN TEMP:  37; 6HR MAX TEMP:  43;

LAPEER         NOT AVBL
MASON          CLOUDY    42  25  51 SE7       30.14S
MONROE         CLOUDY    43  27  52 E5        30.16R
MT. CLEMENS    CLOUDY    37  23  56 CALM      30.18R
6HR MIN TEMP:  31; 6HR MAX TEMP:  37;

PONTIAC        CLOUDY    39  18  42 E5        30.16S
6HR MIN TEMP:  33; 6HR MAX TEMP:  39;

PORT HOPE        N/A     33  25  72 CALM      30.17R
6HR MIN TEMP:  29; 6HR MAX TEMP:  34;

PORT HURON     MOSUNNY   32  27  80 CALM      30.19S
TRI CITIES     CLOUDY    39  27  62 SE5       30.18R
6HR MIN TEMP:  35; 6HR MAX TEMP:  39;

YPSILANTI      PTSUNNY   44  22  41 E6        30.18R
6HR MIN TEMP:  41; 6HR MAX TEMP:  45;

$$
MIZ043>046-050>051-056>058-064>065-071>073-077>080-241300-
SOUTHWEST LOWER MICHIGAN

CITY           SKY/WX    TMP DP  RH WIND       PRES   REMARKS
BATTLE CREEK   CLOUDY    47  29  49 SE7       30.12R
6HR MIN TEMP:  46; 6HR MAX TEMP:  48;

BENTON HARBOR  LGT RAIN  46  34  62 SE6       30.08S
6HR MIN TEMP:  43; 6HR MAX TEMP:  46; 6HR PCP: TRACE;

BIG RAPIDS     CLOUDY    41  22  48 SE9       30.12R
6HR MIN TEMP:  38; 6HR MAX TEMP:  41;

COLDWATER      CLOUDY    45  29  54 SE7       30.13R
6HR MIN TEMP:  45; 6HR MAX TEMP:  47;

HOLLAND        CLOUDY    47  33  58 E8        30.10S
6HR MIN TEMP:  45; 6HR MAX TEMP:  47;

GRAND RAPIDS   CLOUDY    44  33  65 E7        30.12R
6HR MIN TEMP:  42; 6HR MAX TEMP:  46;

KALAMAZOO      CLOUDY    48  32  53 SE7       30.12R
6HR MIN TEMP:  47; 6HR MAX TEMP:  48;

MARSHALL       CLOUDY    45  29  54 SE8       30.12R
MUSKEGON       CLOUDY    45  29  53 SE6       30.11R
6HR MIN TEMP:  44; 6HR MAX TEMP:  45; 6HR PCP: TRACE;

$$
MIZ016>042-241300-
NORTHERN LOWER MICHIGAN

CITY           SKY/WX    TMP DP  RH WIND       PRES   REMARKS
ALPENA         CLOUDY    33  26  75 CALM      30.17S
6HR MIN TEMP:  27; 6HR MAX TEMP:  33;

BEAVER ISLAND  CLOUDY    34  24  67 E6        30.14F
6HR MIN TEMP:  28; 6HR MAX TEMP:  34;

BELLAIRE       PTSUNNY   33  28  79 CALM      30.14F
6HR MIN TEMP:  29; 6HR MAX TEMP:  33;

CADILLAC       CLOUDY    38  17  41 SE3       30.11R
CHARLEVOIX     PTSUNNY   35  24  65 SE3       30.17S
6HR MIN TEMP:  30; 6HR MAX TEMP:  35;

FRANKFORT      CLOUDY    41  18  39 SE5       30.10S
GAYLORD        PTSUNNY   34  24  67 CALM      30.13S
6HR MIN TEMP:  28; 6HR MAX TEMP:  34;

GRAYLING       PTSUNNY   33  24  69 CALM      30.14S
HARBOR SPRINGS PTSUNNY   32  26  78 NE5       30.14F
HOUGHTON LAKE  CLOUDY    35  29  78 E5        30.14F
6HR MIN TEMP:  29; 6HR MAX TEMP:  35;

MANISTEE       CLOUDY    41  19  42 E6        30.11R
OSCODA         PTSUNNY   33  26  73 CALM      30.17F
PELLSTON       CLOUDY    31  25  78 CALM      30.16S
6HR MIN TEMP:  26; 6HR MAX TEMP:  31;

TRAVERSE CITY  CLOUDY    36  28  73 CALM      30.12S
6HR MIN TEMP:  32; 6HR MAX TEMP:  36;

$$
MIZ007>008-015-241300-
EASTERN UPPER MICHIGAN

CITY           SKY/WX    TMP DP  RH WIND       PRES   REMARKS
KINROSS        CLOUDY    32  28  86 CALM      30.15S
6HR MIN TEMP:  28; 6HR MAX TEMP:  32;

MACKINAC ISLAN CLOUDY    35  26  70 E3        30.15F
6HR MIN TEMP:  29; 6HR MAX TEMP:  35;

NEWBERRY       CLOUDY    32  24  72 W6        30.14S
S. S. MARIE    CLOUDY    32  25  75 CALM      30.16R
6HR MIN TEMP:  29; 6HR MAX TEMP:  32;

$$
MIZ004>006-011>014-085-241300-
CENTRAL UPPER MICHIGAN

CITY           SKY/WX    TMP DP  RH WIND       PRES   REMARKS
MANISTIQUE     CLOUDY    34  26  71 E3        30.12F
ESCANABA       CLOUDY    36  25  64 E3        30.11S
6HR MIN TEMP:  30; 6HR MAX TEMP:  36;

MENOMINEE      CLOUDY    36  23  60 E7        30.07F
6HR MIN TEMP:  36; 6HR MAX TEMP:  37;

SAWYER-GWINN   CLOUDY   N/A N/A N/A CALM      30.09R
$$
MIZ001>003-009>011-084-241300-
WESTERN UPPER MICHIGAN

CITY           SKY/WX    TMP DP  RH WIND       PRES   REMARKS
IRON MOUNTAIN  CLOUDY    38  15  39 SE8       30.05S
6HR MIN TEMP:  35; 6HR MAX TEMP:  39;

HOUGHTON       CLOUDY    36  22  56 CALM      30.06S
6HR MIN TEMP:  35; 6HR MAX TEMP:  38;

COPPER HARBOR    N/A     37  25  61 CALM      30.08F
6HR MIN TEMP:  36; 6HR MAX TEMP:  40;

IRONWOOD       CLOUDY    37  30  75 SE12      29.96F
6HR MIN TEMP:  37; 6HR MAX TEMP:  46;

$$

ABBREVIATIONS USED IN REMARKS
   TC - TEMPERATURE IN CELSIUS
  WCI - WIND CHILL INDEX
   HX - HEAT INDEX
  VSB - VISIBILITY




USA.gov is the U.S. government's official web portal to all federal, state and local government web resources and services.